,,,PA_Meas_PMT16A,,PR_Meas_QMR101_102,,RH_Meas_QMH101,,SR_Meas_QMS101,,TA_Meas_QMH101,,GenWind,,GenWind,
date,time,status,PA,status,PR,status,RH,status,SR,status,TA,status,DirAvg,status,SpdAvg,
2009-11-06, 00:00:04,VALID,1007.16,VALID,0,VALID,86.4684,VALID,0,VALID,24.7269,VALID,229,VALID,0,
2009-11-06, 00:01:04,VALID,1007.16,VALID,0,VALID,86.4532,VALID,0.105969,VALID,24.725,VALID,229,VALID,0,
2009-11-06, 00:02:04,VALID,1007.12,VALID,0,VALID,86.4379,VALID,0,VALID,24.7445,VALID,229,VALID,0,
2009-11-06, 00:03:04,VALID,1007.11,VALID,0,VALID,86.4532,VALID,0,VALID,24.7445,VALID,229,VALID,0,
2009-11-06, 00:04:04,VALID,1007.08,VALID,0,VALID,86.4379,VALID,0,VALID,24.7445,VALID,229,VALID,0,
2009-11-06, 00:05:04,VALID,1007.06,VALID,0,VALID,86.4455,VALID,0.105969,VALID,24.7835,VALID,229,VALID,0,
2009-11-06, 00:06:04,VALID,1007.07,VALID,0,VALID,86.4455,VALID,0,VALID,24.7835,VALID,229,VALID,0,
2009-11-06, 00:07:04,VALID,1007.04,VALID,0,VALID,86.4684,VALID,0.105969,VALID,24.8049,VALID,229,VALID,0,
2009-11-06, 00:08:04,VALID,1007.01,VALID,0,VALID,86.4913,VALID,0.105969,VALID,24.7835,VALID,229,VALID,0,
2009-11-06, 00:09:04,VALID,1006.97,VALID,0,VALID,86.476,VALID,0,VALID,24.7835,VALID,229,VALID,0,
2009-11-06, 00:10:04,VALID,1006.94,VALID,0,VALID,86.4913,VALID,0.105969,VALID,24.7835,VALID,229,VALID,0,
2009-11-06, 00:11:04,VALID,1006.85,VALID,0,VALID,86.5142,VALID,0.105969,VALID,24.7854,VALID,229,VALID,0,
2009-11-06, 00:12:04,VALID,1006.82,VALID,0,VALID,86.5218,VALID,0.105969,VALID,24.7835,VALID,229,VALID,0,
2009-11-06, 00:13:04,VALID,1006.75,VALID,0,VALID,86.5142,VALID,0.105969,VALID,24.803,VALID,229,VALID,0,
2009-11-06, 00:14:04,VALID,1006.72,VALID,0,VALID,86.4989,VALID,0.105969,VALID,24.7835,VALID,229,VALID,0,
2009-11-06, 00:15:04,VALID,1006.72,VALID,0,VALID,86.5142,VALID,0,VALID,24.7835,VALID,229,VALID,0,
2009-11-06, 00:16:04,VALID,1006.72,VALID,0,VALID,86.5142,VALID,0.105969,VALID,24.7854,VALID,229,VALID,0,
2009-11-06, 00:17:04,VALID,1006.7,VALID,0,VALID,86.5294,VALID,0.105969,VALID,24.764,VALID,229,VALID,0,
2009-11-06, 00:18:04,VALID,1006.67,VALID,0,VALID,86.5294,VALID,0,VALID,24.7445,VALID,229,VALID,0,
2009-11-06, 00:19:04,VALID,1006.63,VALID,0,VALID,86.5447,VALID,0.105969,VALID,24.7659,VALID,229,VALID,0,
2009-11-06, 00:20:04,VALID,1006.59,VALID,0,VALID,86.5447,VALID,0,VALID,24.7464,VALID,229,VALID,0,
2009-11-06, 00:21:04,VALID,1006.59,VALID,0,VALID,86.5523,VALID,0.105969,VALID,24.725,VALID,229,VALID,0,
2009-11-06, 00:22:04,VALID,1006.56,VALID,0,VALID,86.537,VALID,0,VALID,24.7055,VALID,229,VALID,0,
2009-11-06, 00:23:04,VALID,1006.57,VALID,0,VALID,86.5523,VALID,0.105969,VALID,24.7055,VALID,229,VALID,0,
2009-11-06, 00:24:04,VALID,1006.58,VALID,0,VALID,86.5828,VALID,0,VALID,24.7055,VALID,229,VALID,0,
2009-11-06, 00:25:04,VALID,1006.58,VALID,0,VALID,86.6057,VALID,0,VALID,24.6666,VALID,228,VALID,0,
2009-11-06, 00:26:04,VALID,1006.56,VALID,0,VALID,86.6286,VALID,0,VALID,24.6276,VALID,196,VALID,0,
2009-11-06, 00:27:04,VALID,1006.58,VALID,0,VALID,86.6514,VALID,0.105969,VALID,24.6081,VALID,196,VALID,0,
2009-11-06, 00:28:04,VALID,1006.57,VALID,0,VALID,86.6438,VALID,0,VALID,24.6294,VALID,196,VALID,0,
2009-11-06, 00:29:04,VALID,1006.56,VALID,0,VALID,86.6972,VALID,0.105969,VALID,24.6099,VALID,196,VALID,0,
2009-11-06, 00:30:04,VALID,1006.59,VALID,0,VALID,86.6743,VALID,0.105969,VALID,24.5905,VALID,193,VALID,0,
2009-11-06, 00:31:04,VALID,1006.56,VALID,0,VALID,86.7048,VALID,0.105969,VALID,24.5691,VALID,166,VALID,0,
2009-11-06, 00:32:04,VALID,1006.54,VALID,0,VALID,86.7277,VALID,0.105969,VALID,24.5496,VALID,166,VALID,0,
2009-11-06, 00:33:04,VALID,1006.47,VALID,0,VALID,86.7201,VALID,0,VALID,24.532,VALID,166,VALID,0,
2009-11-06, 00:34:04,VALID,1006.44,VALID,0,VALID,86.7201,VALID,0,VALID,24.5106,VALID,166,VALID,0,
2009-11-06, 00:35:04,VALID,1006.4,VALID,0,VALID,86.6972,VALID,0,VALID,24.5515,VALID,166,VALID,0,
2009-11-06, 00:36:04,VALID,1006.36,VALID,0,VALID,86.7277,VALID,0.105969,VALID,24.5301,VALID,166,VALID,0,
2009-11-06, 00:37:04,VALID,1006.35,VALID,0,VALID,86.7201,VALID,0,VALID,24.5496,VALID,166,VALID,0,
2009-11-06, 00:38:04,VALID,1006.3,VALID,0,VALID,86.7277,VALID,0,VALID,24.571,VALID,166,VALID,0,
2009-11-06, 00:39:04,VALID,1006.31,VALID,0,VALID,86.7658,VALID,0,VALID,24.5515,VALID,166,VALID,0,
2009-11-06, 00:40:04,VALID,1006.29,VALID,0,VALID,86.7582,VALID,0,VALID,24.532,VALID,166,VALID,0,
2009-11-06, 00:41:04,VALID,1006.3,VALID,0,VALID,86.7658,VALID,0.105969,VALID,24.532,VALID,166,VALID,0,
2009-11-06, 00:42:04,VALID,1006.3,VALID,0,VALID,86.7582,VALID,0.105969,VALID,24.5125,VALID,166,VALID,0,
2009-11-06, 00:43:04,VALID,1006.31,VALID,0,VALID,86.7429,VALID,0,VALID,24.532,VALID,166,VALID,0,
2009-11-06, 00:44:04,VALID,1006.32,VALID,0,VALID,86.7506,VALID,0,VALID,24.5515,VALID,166,VALID,0,
2009-11-06, 00:45:04,VALID,1006.36,VALID,0,VALID,86.7353,VALID,0.105969,VALID,24.571,VALID,166,VALID,0,
2009-11-06, 00:46:04,VALID,1006.36,VALID,0,VALID,86.7429,VALID,0.105969,VALID,24.571,VALID,166,VALID,0,
2009-11-06, 00:47:04,VALID,1006.38,VALID,0,VALID,86.7429,VALID,0,VALID,24.5905,VALID,166,VALID,0,
2009-11-06, 00:48:04,VALID,1006.4,VALID,0,VALID,86.7048,VALID,0,VALID,24.6099,VALID,166,VALID,0,
2009-11-06, 00:49:04,VALID,1006.37,VALID,0,VALID,86.6972,VALID,0,VALID,24.6489,VALID,166,VALID,0,
2009-11-06, 00:50:04,VALID,1006.35,VALID,0,VALID,86.6819,VALID,0.105969,VALID,24.6684,VALID,166,VALID,0,
2009-11-06, 00:51:04,VALID,1006.33,VALID,0,VALID,86.7201,VALID,0,VALID,24.6879,VALID,166,VALID,0,
2009-11-06, 00:52:04,VALID,1006.33,VALID,0,VALID,86.7201,VALID,0,VALID,24.7074,VALID,166,VALID,0,
2009-11-06, 00:53:04,VALID,1006.31,VALID,0,VALID,86.7506,VALID,0,VALID,24.6879,VALID,166,VALID,0,
2009-11-06, 00:54:04,VALID,1006.24,VALID,0,VALID,86.7811,VALID,0,VALID,24.6684,VALID,166,VALID,0,
2009-11-06, 00:55:04,VALID,1006.23,VALID,0,VALID,86.7658,VALID,0,VALID,24.6684,VALID,166,VALID,0,
2009-11-06, 00:56:04,VALID,1006.2,VALID,0,VALID,86.7734,VALID,0.105969,VALID,24.6684,VALID,166,VALID,0,
2009-11-06, 00:57:04,VALID,1006.18,VALID,0,VALID,86.7734,VALID,0.105969,VALID,24.6879,VALID,166,VALID,0,
2009-11-06, 00:58:04,VALID,1006.18,VALID,0,VALID,86.7734,VALID,0,VALID,24.6684,VALID,166,VALID,0,
2009-11-06, 00:59:04,VALID,1006.22,VALID,0,VALID,86.7963,VALID,0,VALID,24.6489,VALID,166,VALID,0,
2009-11-06, 01:00:04,VALID,1006.21,VALID,0,VALID,86.7734,VALID,0.105969,VALID,24.6684,VALID,166,VALID,0,
2009-11-06, 01:01:04,VALID,1006.23,VALID,0,VALID,86.7734,VALID,0.105969,VALID,24.6684,VALID,166,VALID,0,
2009-11-06, 01:02:04,VALID,1006.21,VALID,0,VALID,86.7582,VALID,0.105969,VALID,24.7074,VALID,166,VALID,0,
2009-11-06, 01:03:04,VALID,1006.2,VALID,0,VALID,86.7658,VALID,0,VALID,24.7074,VALID,166,VALID,0,
2009-11-06, 01:04:04,VALID,1006.2,VALID,0,VALID,86.7811,VALID,0,VALID,24.7074,VALID,166,VALID,0,
2009-11-06, 01:05:04,VALID,1006.17,VALID,0,VALID,86.7811,VALID,0,VALID,24.7074,VALID,166,VALID,0,
2009-11-06, 01:06:04,VALID,1006.15,VALID,0,VALID,86.7811,VALID,0.105969,VALID,24.7074,VALID,166,VALID,0,
2009-11-06, 01:07:04,VALID,1006.15,VALID,0,VALID,86.7658,VALID,0,VALID,24.7074,VALID,166,VALID,0,
2009-11-06, 01:08:04,VALID,1006.15,VALID,0,VALID,86.7734,VALID,0.105969,VALID,24.7074,VALID,166,VALID,0,
2009-11-06, 01:09:04,VALID,1006.17,VALID,0,VALID,86.7734,VALID,0.105969,VALID,24.7074,VALID,166,VALID,0,
2009-11-06, 01:10:04,VALID,1006.18,VALID,0,VALID,86.7887,VALID,0,VALID,24.7269,VALID,166,VALID,0,
2009-11-06, 01:11:04,VALID,1006.16,VALID,0,VALID,86.7734,VALID,0.105969,VALID,24.7269,VALID,166,VALID,0,
2009-11-06, 01:12:04,VALID,1006.16,VALID,0,VALID,86.7658,VALID,0,VALID,24.7464,VALID,166,VALID,0,
2009-11-06, 01:13:04,VALID,1006.13,VALID,0,VALID,86.7582,VALID,0,VALID,24.7854,VALID,166,VALID,0,
2009-11-06, 01:14:04,VALID,1006.11,VALID,0,VALID,86.7582,VALID,0.105969,VALID,24.7854,VALID,166,VALID,0,
2009-11-06, 01:15:04,VALID,1006.08,VALID,0,VALID,86.7582,VALID,0,VALID,24.8049,VALID,166,VALID,0,
2009-11-06, 01:16:04,VALID,1006.04,VALID,0,VALID,86.7811,VALID,0,VALID,24.8049,VALID,166,VALID,0,
2009-11-06, 01:17:04,VALID,1006.03,VALID,0,VALID,86.7658,VALID,0,VALID,24.8438,VALID,117,VALID,0,
2009-11-06, 01:18:04,VALID,1006.04,VALID,0,VALID,86.7506,VALID,0,VALID,24.8438,VALID,38,VALID,0,
2009-11-06, 01:19:04,VALID,1006,VALID,0,VALID,86.7658,VALID,0,VALID,24.8633,VALID,38,VALID,0,
2009-11-06, 01:20:04,VALID,1006.01,VALID,0,VALID,86.804,VALID,0,VALID,24.8633,VALID,38,VALID,0,
2009-11-06, 01:21:04,VALID,1006.05,VALID,0,VALID,86.7963,VALID,0,VALID,24.8828,VALID,38,VALID,0,
2009-11-06, 01:22:04,VALID,1006.06,VALID,0,VALID,86.7887,VALID,0,VALID,24.8615,VALID,38,VALID,0,
2009-11-06, 01:23:04,VALID,1006.03,VALID,0,VALID,86.804,VALID,0.105969,VALID,24.8828,VALID,38,VALID,0,
2009-11-06, 01:24:04,VALID,1006.05,VALID,0,VALID,86.8345,VALID,0,VALID,24.8828,VALID,38,VALID,0,
2009-11-06, 01:25:04,VALID,1006.03,VALID,0,VALID,86.8192,VALID,0,VALID,24.8828,VALID,38,VALID,0,
2009-11-06, 01:26:04,VALID,1006.03,VALID,0,VALID,86.7963,VALID,0.105969,VALID,24.9023,VALID,38,VALID,0,
2009-11-06, 01:27:04,VALID,1006.01,VALID,0,VALID,86.804,VALID,0,VALID,24.9023,VALID,38,VALID,0,
2009-11-06, 01:28:04,VALID,1005.99,VALID,0,VALID,86.8268,VALID,0,VALID,24.9023,VALID,38,VALID,0,
2009-11-06, 01:29:04,VALID,1005.96,VALID,0,VALID,86.7963,VALID,0,VALID,24.9023,VALID,38,VALID,0,
2009-11-06, 01:30:04,VALID,1005.96,VALID,0,VALID,86.8192,VALID,0,VALID,24.9218,VALID,38,VALID,0,
2009-11-06, 01:31:04,VALID,1005.91,VALID,0,VALID,86.8268,VALID,0,VALID,24.9432,VALID,38,VALID,0,
2009-11-06, 01:32:04,VALID,1005.89,VALID,0,VALID,86.8268,VALID,0.105969,VALID,24.9199,VALID,38,VALID,0,
2009-11-06, 01:33:04,VALID,1005.88,VALID,0,VALID,86.8345,VALID,0,VALID,24.9413,VALID,38,VALID,0,
2009-11-06, 01:34:04,VALID,1005.87,VALID,0,VALID,86.8116,VALID,0,VALID,24.9413,VALID,38,VALID,0,
2009-11-06, 01:35:04,VALID,1005.87,VALID,0,VALID,86.8497,VALID,0,VALID,24.9218,VALID,38,VALID,0,
2009-11-06, 01:36:04,VALID,1005.85,VALID,0,VALID,86.8345,VALID,0,VALID,24.9218,VALID,38,VALID,0,
2009-11-06, 01:37:04,VALID,1005.87,VALID,0,VALID,86.8345,VALID,0.105969,VALID,24.9218,VALID,38,VALID,0,
2009-11-06, 01:38:04,VALID,1005.84,VALID,0,VALID,86.8192,VALID,0,VALID,24.9023,VALID,38,VALID,0,
2009-11-06, 01:39:04,VALID,1005.83,VALID,0,VALID,86.8116,VALID,0,VALID,24.9023,VALID,38,VALID,0,
2009-11-06, 01:40:04,VALID,1005.82,VALID,0,VALID,86.7963,VALID,0,VALID,24.9023,VALID,38,VALID,0,
2009-11-06, 01:41:04,VALID,1005.8,VALID,0,VALID,86.8268,VALID,0,VALID,24.8809,VALID,38,VALID,0,
2009-11-06, 01:42:04,VALID,1005.79,VALID,0,VALID,86.804,VALID,0,VALID,24.8809,VALID,38,VALID,0,
2009-11-06, 01:43:04,VALID,1005.83,VALID,0,VALID,86.8116,VALID,0,VALID,24.9023,VALID,38,VALID,0,
2009-11-06, 01:44:04,VALID,1005.81,VALID,0,VALID,86.804,VALID,0,VALID,24.8828,VALID,38,VALID,0,
2009-11-06, 01:45:04,VALID,1005.84,VALID,0,VALID,86.804,VALID,0,VALID,24.8615,VALID,38,VALID,0,
2009-11-06, 01:46:04,VALID,1005.85,VALID,0,VALID,86.8268,VALID,0,VALID,24.8828,VALID,38,VALID,0,
2009-11-06, 01:47:04,VALID,1005.82,VALID,0,VALID,86.8192,VALID,0,VALID,24.8633,VALID,82,VALID,0,
2009-11-06, 01:48:04,VALID,1005.83,VALID,0,VALID,86.8116,VALID,0.105969,VALID,24.8809,VALID,132,VALID,1.0293,
2009-11-06, 01:49:04,VALID,1005.84,VALID,0,VALID,86.8116,VALID,0.105969,VALID,24.9218,VALID,161,VALID,0.689453,
2009-11-06, 01:50:04,VALID,1005.87,VALID,0,VALID,86.8345,VALID,0,VALID,24.9199,VALID,157,VALID,0.820313,
2009-11-06, 01:51:04,VALID,1005.87,VALID,0,VALID,86.8268,VALID,0,VALID,24.9413,VALID,178,VALID,0.692187,
2009-11-06, 01:52:04,VALID,1005.89,VALID,0,VALID,86.8497,VALID,0.105969,VALID,24.9394,VALID,179,VALID,0.477734,
2009-11-06, 01:53:04,VALID,1005.9,VALID,0,VALID,86.8116,VALID,0,VALID,24.9608,VALID,179,VALID,0.284375,
2009-11-06, 01:54:04,VALID,1005.89,VALID,0,VALID,86.8268,VALID,0,VALID,24.9608,VALID,179,VALID,0.0578125,
2009-11-06, 01:55:04,VALID,1005.9,VALID,0,VALID,86.865,VALID,0,VALID,24.9413,VALID,156,VALID,0.392969,
2009-11-06, 01:56:04,VALID,1005.95,VALID,0,VALID,86.8421,VALID,0,VALID,24.9023,VALID,126,VALID,0.126172,
2009-11-06, 01:57:04,VALID,1005.96,VALID,0,VALID,86.8345,VALID,0,VALID,24.9199,VALID,126,VALID,0,
2009-11-06, 01:58:04,VALID,1006,VALID,0,VALID,86.865,VALID,0,VALID,24.9004,VALID,126,VALID,0,
2009-11-06, 01:59:04,VALID,1005.99,VALID,0,VALID,86.8573,VALID,0,VALID,24.9218,VALID,126,VALID,0,
2009-11-06, 02:00:04,VALID,1006.02,VALID,0.5,VALID,86.8726,VALID,0,VALID,24.9004,VALID,126,VALID,0.404687,
2009-11-06, 02:01:04,VALID,1006.05,VALID,0,VALID,86.8726,VALID,0,VALID,24.9004,VALID,126,VALID,0.394531,
2009-11-06, 02:02:04,VALID,1006.11,VALID,0,VALID,86.8878,VALID,0,VALID,24.9218,VALID,126,VALID,0.0855469,
2009-11-06, 02:03:04,VALID,1006.12,VALID,0,VALID,86.9031,VALID,0,VALID,24.9218,VALID,126,VALID,0,
2009-11-06, 02:04:04,VALID,1006.15,VALID,0,VALID,86.9107,VALID,0.105969,VALID,24.9413,VALID,126,VALID,0.134375,
2009-11-06, 02:05:04,VALID,1006.15,VALID,0,VALID,86.9412,VALID,0.105969,VALID,24.9413,VALID,126,VALID,0.174219,
2009-11-06, 02:06:04,VALID,1006.17,VALID,0,VALID,86.9565,VALID,0.105969,VALID,24.9004,VALID,126,VALID,0.30625,
2009-11-06, 02:07:04,VALID,1006.19,VALID,0,VALID,86.9488,VALID,0,VALID,24.9413,VALID,38,VALID,0.488672,
2009-11-06, 02:08:04,VALID,1006.18,VALID,0,VALID,86.9717,VALID,0,VALID,24.9413,VALID,38,VALID,0.216406,
2009-11-06, 02:09:04,VALID,1006.18,VALID,0,VALID,86.9717,VALID,0,VALID,24.9608,VALID,38,VALID,0.197266,
2009-11-06, 02:10:04,VALID,1006.17,VALID,0,VALID,86.9946,VALID,0.105969,VALID,24.9608,VALID,38,VALID,0,
2009-11-06, 02:11:04,VALID,1006.18,VALID,0,VALID,87.0022,VALID,0,VALID,24.9218,VALID,38,VALID,0,
2009-11-06, 02:12:04,VALID,1006.17,VALID,0,VALID,87.0404,VALID,0,VALID,24.9218,VALID,38,VALID,0,
2009-11-06, 02:13:04,VALID,1006.16,VALID,0,VALID,87.0632,VALID,0,VALID,24.9218,VALID,38,VALID,0,
2009-11-06, 02:14:04,VALID,1006.2,VALID,0,VALID,87.048,VALID,0,VALID,24.9218,VALID,38,VALID,0,
2009-11-06, 02:15:04,VALID,1006.18,VALID,0,VALID,87.0556,VALID,0,VALID,24.9218,VALID,136,VALID,0,
2009-11-06, 02:16:04,VALID,1006.19,VALID,0,VALID,87.1014,VALID,0.105969,VALID,24.9004,VALID,144,VALID,0.169922,
2009-11-06, 02:17:04,VALID,1006.21,VALID,0,VALID,87.1014,VALID,0.105969,VALID,24.8809,VALID,169,VALID,0.882422,
2009-11-06, 02:18:04,VALID,1006.25,VALID,0,VALID,87.109,VALID,0,VALID,24.8809,VALID,180,VALID,0.945313,
2009-11-06, 02:19:04,VALID,1006.27,VALID,0,VALID,87.1395,VALID,0,VALID,24.9004,VALID,183,VALID,0.832812,
2009-11-06, 02:20:04,VALID,1006.28,VALID,0,VALID,87.1471,VALID,0,VALID,24.9413,VALID,183,VALID,1.12383,
2009-11-06, 02:21:04,VALID,1006.37,VALID,0,VALID,87.1547,VALID,0,VALID,24.9608,VALID,195,VALID,0.671484,
2009-11-06, 02:22:04,VALID,1006.36,VALID,0,VALID,87.2005,VALID,0,VALID,24.9803,VALID,187,VALID,1.04805,
2009-11-06, 02:23:04,VALID,1006.4,VALID,0,VALID,87.2386,VALID,0,VALID,24.9998,VALID,178,VALID,0.588672,
2009-11-06, 02:24:04,VALID,1006.38,VALID,0,VALID,87.231,VALID,0,VALID,24.9784,VALID,175,VALID,0.765234,
2009-11-06, 02:25:04,VALID,1006.42,VALID,0,VALID,87.2234,VALID,0,VALID,25.0193,VALID,178,VALID,0.990625,
2009-11-06, 02:26:04,VALID,1006.43,VALID,0,VALID,87.2234,VALID,0,VALID,25.0193,VALID,175,VALID,0.6,
2009-11-06, 02:27:04,VALID,1006.43,VALID,0,VALID,87.2081,VALID,0,VALID,25.0388,VALID,194,VALID,0.7375,
2009-11-06, 02:28:04,VALID,1006.45,VALID,0,VALID,87.2691,VALID,0,VALID,25.0369,VALID,184,VALID,1.14609,
2009-11-06, 02:29:04,VALID,1006.44,VALID,0,VALID,87.3683,VALID,0.105969,VALID,25.0388,VALID,198,VALID,1.62461,
2009-11-06, 02:30:04,VALID,1006.44,VALID,0,VALID,87.3454,VALID,0,VALID,25.0388,VALID,188,VALID,1.19141,
2009-11-06, 02:31:04,VALID,1006.44,VALID,0,VALID,87.2996,VALID,0,VALID,25.0369,VALID,187,VALID,1.10352,
2009-11-06, 02:32:04,VALID,1006.41,VALID,0,VALID,87.2081,VALID,0.105969,VALID,25.0973,VALID,183,VALID,1.00703,
2009-11-06, 02:33:04,VALID,1006.36,VALID,0,VALID,87.1242,VALID,0,VALID,25.0564,VALID,181,VALID,1.34336,
2009-11-06, 02:34:04,VALID,1006.33,VALID,0,VALID,86.8955,VALID,0.105969,VALID,25.0778,VALID,188,VALID,1.49688,
2009-11-06, 02:35:04,VALID,1006.34,VALID,0,VALID,86.6362,VALID,0,VALID,25.0583,VALID,195,VALID,1.81172,
2009-11-06, 02:36:04,VALID,1006.31,VALID,0,VALID,86.3845,VALID,0.105969,VALID,25.0564,VALID,189,VALID,1.71758,
2009-11-06, 02:37:04,VALID,1006.3,VALID,0,VALID,86.2244,VALID,0,VALID,25.0759,VALID,197,VALID,1.5918,
2009-11-06, 02:38:04,VALID,1006.32,VALID,0,VALID,86.1176,VALID,0,VALID,25.0778,VALID,170,VALID,1.56523,
2009-11-06, 02:39:04,VALID,1006.33,VALID,0,VALID,86.0719,VALID,0,VALID,25.0778,VALID,202,VALID,1.59141,
2009-11-06, 02:40:04,VALID,1006.33,VALID,0,VALID,85.927,VALID,0.105969,VALID,25.0564,VALID,203,VALID,1.66602,
2009-11-06, 02:41:04,VALID,1006.35,VALID,0,VALID,85.7363,VALID,0.105969,VALID,25.0564,VALID,195,VALID,1.57813,
2009-11-06, 02:42:04,VALID,1006.32,VALID,0,VALID,85.5152,VALID,0.105969,VALID,25.0369,VALID,183,VALID,2.01133,
2009-11-06, 02:43:04,VALID,1006.33,VALID,0,VALID,85.4923,VALID,0.105969,VALID,25.0369,VALID,191,VALID,2.11914,
2009-11-06, 02:44:04,VALID,1006.33,VALID,0,VALID,85.2635,VALID,0.105969,VALID,25.0174,VALID,180,VALID,2.3418,
2009-11-06, 02:45:04,VALID,1006.36,VALID,0,VALID,85.4161,VALID,0.105969,VALID,25.0174,VALID,173,VALID,1.61367,
2009-11-06, 02:46:04,VALID,1006.31,VALID,0.5,VALID,85.6143,VALID,0.105969,VALID,24.9589,VALID,180,VALID,1.87344,
2009-11-06, 02:47:04,VALID,1006.34,VALID,0,VALID,85.8202,VALID,0,VALID,24.9004,VALID,187,VALID,1.975,
2009-11-06, 02:48:04,VALID,1006.3,VALID,0,VALID,86.0261,VALID,0.105969,VALID,24.8225,VALID,127,VALID,1.78359,
2009-11-06, 02:49:04,VALID,1006.3,VALID,0,VALID,86.2854,VALID,0,VALID,24.7659,VALID,125,VALID,0.998828,
2009-11-06, 02:50:04,VALID,1006.3,VALID,0.5,VALID,86.3083,VALID,0.105969,VALID,24.686,VALID,184,VALID,1.65586,
2009-11-06, 02:51:04,VALID,1006.33,VALID,0,VALID,86.476,VALID,0.105969,VALID,24.6276,VALID,203,VALID,1.0793,
2009-11-06, 02:52:04,VALID,1006.37,VALID,0.5,VALID,86.7811,VALID,0.105969,VALID,24.5886,VALID,189,VALID,1.61055,
2009-11-06, 02:53:04,VALID,1006.44,VALID,1,VALID,87.0632,VALID,0.105969,VALID,24.5301,VALID,205,VALID,2.51641,
2009-11-06, 02:54:04,VALID,1006.45,VALID,1,VALID,87.2539,VALID,0,VALID,24.4735,VALID,201,VALID,2.36172,
2009-11-06, 02:55:04,VALID,1006.47,VALID,1,VALID,87.4064,VALID,0.105969,VALID,24.3547,VALID,189,VALID,1.9168,
2009-11-06, 02:56:04,VALID,1006.46,VALID,1.5,VALID,87.5436,VALID,0.105969,VALID,24.2768,VALID,194,VALID,2.07773,
2009-11-06, 02:57:04,VALID,1006.48,VALID,1,VALID,87.6733,VALID,0,VALID,24.1988,VALID,191,VALID,2.15078,
2009-11-06, 02:58:04,VALID,1006.49,VALID,1,VALID,87.78,VALID,0,VALID,24.1599,VALID,190,VALID,2.63984,
2009-11-06, 02:59:04,VALID,1006.5,VALID,1,VALID,87.8563,VALID,0.105969,VALID,24.1209,VALID,196,VALID,1.8375,
2009-11-06, 03:00:04,VALID,1006.51,VALID,0.5,VALID,87.8944,VALID,0.105969,VALID,24.1014,VALID,178,VALID,1.31836,
2009-11-06, 03:01:04,VALID,1006.49,VALID,0.5,VALID,87.9097,VALID,0.105969,VALID,24.0819,VALID,170,VALID,1.15508,
2009-11-06, 03:02:04,VALID,1006.56,VALID,1.5,VALID,87.9173,VALID,0,VALID,24.1014,VALID,175,VALID,1.54258,
2009-11-06, 03:03:04,VALID,1006.53,VALID,1,VALID,87.9097,VALID,0.105969,VALID,24.1209,VALID,165,VALID,1.575,
2009-11-06, 03:04:04,VALID,1006.54,VALID,1.5,VALID,87.9097,VALID,0.105969,VALID,24.1209,VALID,183,VALID,1.24258,
2009-11-06, 03:05:04,VALID,1006.53,VALID,1.5,VALID,87.9402,VALID,0.105969,VALID,24.1404,VALID,209,VALID,1.04844,
2009-11-06, 03:06:04,VALID,1006.52,VALID,1,VALID,87.9326,VALID,0.105969,VALID,24.1599,VALID,218,VALID,1.08945,
2009-11-06, 03:07:04,VALID,1006.52,VALID,0.5,VALID,87.9249,VALID,0.105969,VALID,24.1599,VALID,213,VALID,0.779688,
2009-11-06, 03:08:04,VALID,1006.52,VALID,0.5,VALID,87.9173,VALID,0.105969,VALID,24.1812,VALID,214,VALID,0.521484,
2009-11-06, 03:09:04,VALID,1006.53,VALID,1,VALID,87.8868,VALID,0.105969,VALID,24.1793,VALID,224,VALID,1.00898,
2009-11-06, 03:10:04,VALID,1006.54,VALID,0,VALID,87.8639,VALID,0.105969,VALID,24.1988,VALID,225,VALID,0.896484,
2009-11-06, 03:11:04,VALID,1006.51,VALID,0.5,VALID,87.8639,VALID,0.105969,VALID,24.2183,VALID,240,VALID,0.846094,
2009-11-06, 03:12:04,VALID,1006.54,VALID,0,VALID,87.8334,VALID,0.105969,VALID,24.2573,VALID,229,VALID,0.398828,
2009-11-06, 03:13:04,VALID,1006.54,VALID,0.5,VALID,87.8106,VALID,0.105969,VALID,24.2768,VALID,223,VALID,1.22031,
2009-11-06, 03:14:04,VALID,1006.55,VALID,0,VALID,87.7877,VALID,0.105969,VALID,24.2963,VALID,186,VALID,0.764063,
2009-11-06, 03:15:04,VALID,1006.57,VALID,0.5,VALID,87.7724,VALID,0.105969,VALID,24.3158,VALID,201,VALID,1.38555,
2009-11-06, 03:16:04,VALID,1006.57,VALID,0.5,VALID,87.78,VALID,0.105969,VALID,24.3566,VALID,202,VALID,0.857422,
2009-11-06, 03:17:04,VALID,1006.52,VALID,0.5,VALID,87.7495,VALID,0.105969,VALID,24.3547,VALID,248,VALID,1.14336,
2009-11-06, 03:18:04,VALID,1006.55,VALID,0,VALID,87.7419,VALID,0.105969,VALID,24.3937,VALID,215,VALID,1.01797,
2009-11-06, 03:19:04,VALID,1006.55,VALID,0.5,VALID,87.7419,VALID,0.105969,VALID,24.3937,VALID,205,VALID,1.27773,
2009-11-06, 03:20:04,VALID,1006.52,VALID,0,VALID,87.7267,VALID,0.105969,VALID,24.3937,VALID,209,VALID,1.94336,
2009-11-06, 03:21:04,VALID,1006.53,VALID,0.5,VALID,87.7267,VALID,0.105969,VALID,24.4132,VALID,212,VALID,1.51719,
2009-11-06, 03:22:04,VALID,1006.52,VALID,0.5,VALID,87.7267,VALID,0.105969,VALID,24.3742,VALID,230,VALID,1.66719,
2009-11-06, 03:23:04,VALID,1006.56,VALID,0.5,VALID,87.7419,VALID,0.105969,VALID,24.3742,VALID,219,VALID,1.33555,
2009-11-06, 03:24:04,VALID,1006.59,VALID,0.5,VALID,87.7648,VALID,0.105969,VALID,24.3742,VALID,225,VALID,1.36094,
2009-11-06, 03:25:04,VALID,1006.64,VALID,0.5,VALID,87.7648,VALID,0,VALID,24.3761,VALID,230,VALID,0.883984,
2009-11-06, 03:26:04,VALID,1006.65,VALID,0.5,VALID,87.7114,VALID,0,VALID,24.3584,VALID,215,VALID,1.23945,
2009-11-06, 03:27:04,VALID,1006.67,VALID,0.5,VALID,87.7495,VALID,0,VALID,24.3566,VALID,199,VALID,0.891797,
2009-11-06, 03:28:04,VALID,1006.64,VALID,0,VALID,87.7343,VALID,0,VALID,24.3566,VALID,221,VALID,1.20508,
2009-11-06, 03:29:04,VALID,1006.6,VALID,0.5,VALID,87.719,VALID,0,VALID,24.3761,VALID,242,VALID,0.801953,
2009-11-06, 03:30:04,VALID,1006.59,VALID,0,VALID,87.6962,VALID,0,VALID,24.3761,VALID,224,VALID,0.925,
2009-11-06, 03:31:04,VALID,1006.55,VALID,0.5,VALID,87.7114,VALID,0,VALID,24.3566,VALID,242,VALID,0.596484,
2009-11-06, 03:32:04,VALID,1006.55,VALID,0,VALID,87.719,VALID,0,VALID,24.3566,VALID,229,VALID,0.389062,
2009-11-06, 03:33:04,VALID,1006.51,VALID,0.5,VALID,87.6733,VALID,0,VALID,24.3566,VALID,232,VALID,0.6625,
2009-11-06, 03:34:04,VALID,1006.5,VALID,0,VALID,87.6733,VALID,0,VALID,24.3761,VALID,255,VALID,0.578125,
2009-11-06, 03:35:04,VALID,1006.46,VALID,0.5,VALID,87.6352,VALID,0,VALID,24.3761,VALID,255,VALID,0.802734,
2009-11-06, 03:36:04,VALID,1006.48,VALID,0,VALID,87.6428,VALID,0,VALID,24.4169,VALID,264,VALID,0.566797,
2009-11-06, 03:37:04,VALID,1006.46,VALID,0.5,VALID,87.6352,VALID,0,VALID,24.415,VALID,263,VALID,0.510156,
2009-11-06, 03:38:04,VALID,1006.44,VALID,0,VALID,87.5818,VALID,0,VALID,24.4345,VALID,280,VALID,0.996484,
2009-11-06, 03:39:04,VALID,1006.46,VALID,0,VALID,87.5818,VALID,0,VALID,24.454,VALID,287,VALID,0.660156,
2009-11-06, 03:40:04,VALID,1006.42,VALID,0,VALID,87.6123,VALID,0,VALID,24.4717,VALID,295,VALID,0.439844,
2009-11-06, 03:41:04,VALID,1006.42,VALID,0.5,VALID,87.5818,VALID,0.105969,VALID,24.5125,VALID,285,VALID,0.848437,
2009-11-06, 03:42:04,VALID,1006.45,VALID,0,VALID,87.6047,VALID,0.105969,VALID,24.532,VALID,298,VALID,0.682031,
2009-11-06, 03:43:04,VALID,1006.41,VALID,0,VALID,87.597,VALID,0,VALID,24.5125,VALID,302,VALID,0.605078,
2009-11-06, 03:44:04,VALID,1006.41,VALID,0,VALID,87.5513,VALID,0,VALID,24.532,VALID,290,VALID,0.924219,
2009-11-06, 03:45:04,VALID,1006.41,VALID,0,VALID,87.5818,VALID,0,VALID,24.5106,VALID,292,VALID,0.942969,
2009-11-06, 03:46:04,VALID,1006.4,VALID,0,VALID,87.5665,VALID,0.105969,VALID,24.5301,VALID,302,VALID,0.588672,